Location: Dodgeville
(42.9600°N, 90.1300°W)
Time: 15:44:13
(UTC-05:00)

Amateur Radio Satellites - All Passes

Search period start: 27 April 2015 15:14
Search period end: 28 April 2015 15:14
Location: Dodgeville, 42.9600°N, 90.1300°W

Satellite Date Start Highest point End Downlink Frequencies (MHz)
Time Altitude Azimuth
ITUPSAT 1 27 Apr 15:16:18 15:20:59 56° 287° (WNW) 15:25:38 437.325
ISS 27 Apr 15:25:33 15:27:54 18° 6° (N) 15:30:16 145.825
JAS-2 27 Apr 15:38:05 15:45:41 57° 70° (ENE) 15:53:00 435.910
BEESAT 27 Apr 15:46:16 15:50:24 29° 292° (WNW) 15:54:26 436.000
SWISSCUBE 27 Apr 15:49:18 15:53:13 25° 294° (WNW) 15:57:03 437.505
STARS 27 Apr 15:57:34 16:01:55 51° 99° (E) 16:06:16 437.465
AO-7 27 Apr 15:57:53 16:06:10 82° 70° (ENE) 16:14:30 29.400- 29.500
GONETS M04 27 Apr 16:03:33 16:11:31 42° 88° (E) 16:19:40
CUSAT 1 27 Apr 16:08:26 16:08:33 10° 78° (ENE) 16:08:56 437.405
ITAMSAT 1 27 Apr 16:14:44 16:16:36 11° 274° (W) 16:18:08 435.822/435.867
HORYU 2 27 Apr 16:29:00 16:33:08 34° 263° (W) 16:37:15 437.375
PCSat 27 Apr 16:30:10 16:35:05 34° 49° (NE) 16:40:02 145.827
VERMONT LUNAR 27 Apr 16:41:32 16:44:35 32° 162° (SSE) 16:47:40 437.305
RS-15 27 Apr 16:43:51 16:54:06 42° 323° (NW) 17:04:35 29.354- 29.394
KKS-1 27 Apr 16:44:41 16:48:44 33° 291° (WNW) 16:52:45 437.445
DANDE 27 Apr 16:58:12 17:01:07 24° 86° (E) 17:04:50 436.750
ISS 27 Apr 17:01:45 17:04:53 40° 25° (NNE) 17:07:59 145.825
Cosmos 2499 27 Apr 17:19:45 17:26:01 23° 82° (E) 17:32:29 435.465 / 435.565
JAS-2 27 Apr 17:24:00 17:30:59 33° 267° (W) 17:37:37 435.910
MOZHAYETS 4 27 Apr 17:26:16 17:30:44 49° 99° (E) 17:35:11
PHONESAT 2.4 27 Apr 17:30:56 17:34:07 30° 160° (SSE) 17:37:19 2401.200-2431.200
STARS 27 Apr 17:35:04 17:38:02 17° 296° (WNW) 17:40:51 437.465
CUTE-I 27 Apr 17:36:53 17:41:31 32° 67° (ENE) 17:46:13 437.470
CUSAT 1 27 Apr 17:46:17 17:50:05 65° 284° (WNW) 17:55:15 437.405
Cubesat XI-IV 27 Apr 17:46:51 17:51:45 39° 69° (ENE) 17:56:42 437.490
AO-7 27 Apr 17:53:51 18:00:02 22° 271° (W) 18:05:51 29.400- 29.500
GONETS M04 27 Apr 18:00:01 18:08:22 45° 288° (WNW) 18:16:43
PCSat 27 Apr 18:13:33 18:18:35 38° 248° (WSW) 18:23:31 145.827
VERMONT LUNAR 27 Apr 18:18:28 18:21:48 57° 178° (S) 18:25:08 437.305
ISS 27 Apr 18:38:16 18:41:09 29° 223° (SW) 18:44:01 145.825
DANDE 27 Apr 18:41:14 18:44:21 23° 296° (WNW) 18:48:10 436.750
PRISM 27 Apr 18:46:46 18:48:57 14° 90° (E) 18:51:18 437.425
RS-15 27 Apr 19:02:01 19:10:34 24° 356° (N) 19:19:21 29.354- 29.394
MOZHAYETS 4 27 Apr 19:04:27 19:07:38 18° 295° (WNW) 19:10:40
PHONESAT 2.4 27 Apr 19:08:32 19:12:04 57° 176° (S) 19:15:37 2401.200-2431.200
CUBESAT XI-V 27 Apr 19:08:49 19:13:16 47° 98° (E) 19:17:44 437.345
Cosmos 2499 27 Apr 19:09:31 19:18:25 79° 279° (W) 19:27:02 435.465 / 435.565
M-CUBED/EXP-1 PRIME 27 Apr 19:09:53 19:13:42 36° 101° (E) 19:17:15 437.505
HO-68 27 Apr 19:15:23 19:20:35 23° 57° (ENE) 19:26:00 435.675
SO-50 27 Apr 19:15:54 19:20:19 31° 45° (NE) 19:24:44 436.795
CUTE-I 27 Apr 19:16:43 19:21:33 35° 264° (W) 19:26:23 437.470
Cubesat XI-IV 27 Apr 19:27:25 19:31:59 28° 266° (W) 19:36:30 437.490
CANX-2 27 Apr 19:45:11 19:47:54 17° 65° (ENE) 19:50:45 2200.000
GOMX 1 27 Apr 19:46:51 19:50:03 21° 66° (ENE) 19:53:28 467.674
AUBIESAT-1 27 Apr 19:49:58 19:54:07 87° 291° (WNW) 19:57:54 437.475
CUTE 1.7 + AOD 2 27 Apr 19:53:42 19:56:39 19° 66° (ENE) 19:59:44 437.475
YUBILEINY 27 Apr 19:55:21 19:58:24 12° 51° (NE) 20:02:05 435.215
VERMONT LUNAR 27 Apr 19:55:52 19:59:03 38° 195° (SSW) 20:02:14 437.305
STRAND 1 27 Apr 20:08:33 20:13:40 82° 103° (ESE) 20:18:48 437.568
BRITE-PL 27 Apr 20:09:53 20:13:57 56° 74° (ENE) 20:18:14 437.365/2234.400
DOVE 4 27 Apr 20:12:03 20:15:37 26° 67° (ENE) 20:19:27 437.250
PRISM 27 Apr 20:20:48 20:24:45 47° 288° (WNW) 20:28:41 437.425
CUBEBUG 2 27 Apr 20:26:26 20:27:31 11° 60° (ENE) 20:28:52 437.445
COMPASS 1 27 Apr 20:38:06 20:41:58 36° 71° (ENE) 20:45:54 437.405
CINEMA 3 27 Apr 20:39:33 20:43:12 27° 67° (ENE) 20:47:05 145.822/145.860
DELFI C3 27 Apr 20:41:48 20:43:24 12° 64° (ENE) 20:45:12 145.870
M-CUBED/EXP-1 PRIME 27 Apr 20:45:11 20:48:21 20° 300° (WNW) 20:51:14 437.505
UWE-3 27 Apr 20:46:23 20:48:43 15° 63° (ENE) 20:51:15 435.000/436.395/437.385
PHONESAT 2.4 27 Apr 20:46:40 20:50:07 43° 193° (SSW) 20:53:32 2401.200-2431.200
CUBESAT XI-V 27 Apr 20:47:06 20:50:25 19° 295° (WNW) 20:53:36 437.345
FUNcube-1 27 Apr 20:50:27 20:52:12 12° 62° (ENE) 20:54:11 145.935
SO-50 27 Apr 20:56:19 21:00:59 40° 243° (WSW) 21:05:32 436.795
HO-68 27 Apr 21:00:26 21:07:39 79° 255° (WSW) 21:14:54 435.675
SEEDS 27 Apr 21:06:46 21:11:04 88° 264° (W) 21:15:22 437.485
Cosmos 2499 27 Apr 21:07:20 21:13:10 18° 302° (WNW) 21:18:26 435.465 / 435.565
Oscar 11 27 Apr 21:08:25 21:12:16 33° 70° (ENE) 21:16:13 145.826/435.025
ZACube-1 27 Apr 21:14:59 21:18:20 22° 67° (ENE) 21:21:51 437.345
RS-15 27 Apr 21:17:28 21:27:32 35° 30° (NNE) 21:38:09 29.354- 29.394
AAUSAT CUBESAT 2 27 Apr 21:18:21 21:22:35 87° 74° (ENE) 21:26:50 437.432
CANX-2 27 Apr 21:19:19 21:23:30 48° 261° (W) 21:27:42 2200.000
GOMX 1 27 Apr 21:24:05 21:28:00 35° 264° (W) 21:32:05 467.674
CUTE 1.7 + AOD 2 27 Apr 21:28:12 21:32:17 42° 262° (W) 21:36:25 437.475
VERMONT LUNAR 27 Apr 21:34:26 21:36:00 13° 210° (SSW) 21:37:29 437.305
Cosmos 2491 27 Apr 21:42:11 21:48:51 27° 82° (E) 21:55:52 435.465 / 435.565
DX 1 27 Apr 21:46:08 21:49:52 29° 68° (ENE) 21:53:39 434.975-435.025
AISAT 27 Apr 21:46:39 21:49:07 15° 63° (ENE) 21:51:45 437.250
YUBILEINY 27 Apr 21:49:02 21:57:41 61° 77° (ENE) 22:06:16 435.215
DOVE 4 27 Apr 21:49:33 21:53:20 29° 266° (W) 21:57:17 437.250
STRAND 1 27 Apr 21:49:35 21:52:17 14° 300° (WNW) 21:54:45 437.568
BRITE-PL 27 Apr 21:51:12 21:53:05 12° 273° (W) 21:54:46 437.365/2234.400
CUBEBUG 2 27 Apr 21:59:08 22:03:32 86° 257° (WSW) 22:08:08 437.445
DELFI C3 27 Apr 22:14:02 22:18:05 62° 259° (W) 22:22:09 145.870
COMPASS 1 27 Apr 22:14:34 22:17:48 20° 268° (W) 22:20:56 437.405
CINEMA 3 27 Apr 22:16:25 22:20:20 31° 266° (W) 22:24:23 145.822/145.860
O/OREOS (USA 219) 27 Apr 22:20:03 22:24:37 78° 111° (ESE) 22:29:12 437.305
UWE-3 27 Apr 22:20:24 22:24:45 63° 260° (W) 22:29:16 435.000/436.395/437.385
FUNcube-1 27 Apr 22:23:36 22:27:58 73° 258° (WSW) 22:32:28 145.935
UKube-1 27 Apr 22:25:13 22:29:30 72° 75° (ENE) 22:33:49 .
PHONESAT 2.4 27 Apr 22:25:36 22:27:52 16° 209° (SSW) 22:30:05 2401.200-2431.200
HUMSAT D 27 Apr 22:26:07 22:30:17 59° 74° (ENE) 22:34:33 437.325/437.525
ESTCUBE 1 27 Apr 22:32:32 22:36:06 24° 67° (ENE) 22:39:47 437.505/2401.250
Oscar 11 27 Apr 22:44:58 22:48:31 24° 267° (W) 22:52:01 145.826/435.025
50 SAT 27 Apr 22:50:05 22:54:03 68° 75° (ENE) 22:58:06 437.505
ZACube-1 27 Apr 22:50:25 22:54:30 37° 264° (W) 22:58:39 437.345
TIGRISAT 27 Apr 22:50:32 22:54:14 23° 92° (E) 22:57:59 435.000
HO-68 27 Apr 22:53:03 22:56:41 14° 275° (W) 22:59:48 435.675
UNISAT 6 27 Apr 22:55:45 22:59:43 27° 94° (E) 23:03:41 437.425
Cosmos 2504 27 Apr 22:56:01 23:00:13 15° 55° (NE) 23:04:40 435.465 / 435.565
DUCHIFAT 1 27 Apr 22:58:15 22:59:50 12° 88° (E) 23:01:40 145.980
POLYITAN 1 27 Apr 22:59:51 23:01:54 13° 89° (E) 23:04:09 437.675
CUBEBUG 1 27 Apr 23:00:46 23:04:47 39° 71° (ENE) 23:08:50 437.445
VELOX 1 27 Apr 23:01:59 23:06:23 86° 76° (ENE) 23:10:49 145.980
QB50P1 27 Apr 23:16:06 23:19:13 20° 92° (E) 23:22:27 145.935-145.965
AISAT 27 Apr 23:20:59 23:25:18 57° 259° (W) 23:29:40 437.250
DX 1 27 Apr 23:22:27 23:26:08 26° 265° (W) 23:29:45 434.975-435.025
RS-15 27 Apr 23:30:06 23:41:42 89° 60° (ENE) 23:53:49 29.354- 29.394
TISAT 1 27 Apr 23:33:12 23:36:09 19° 66° (ENE) 23:39:13 437.305
Cosmos 2491 27 Apr 23:36:22 23:45:04 69° 282° (WNW) 23:53:50 435.465 / 435.565
ANTELSAT 27 Apr 23:37:25 23:42:09 72° 101° (E) 23:46:46 437.575/2403.000
QB50P2 27 Apr 23:42:25 23:46:28 39° 97° (E) 23:50:31 145.880/145.840
YUBILEINY 27 Apr 23:46:40 23:54:02 30° 276° (W) 00:01:06 435.215
NANOSAT C BR1 27 Apr 23:58:42 00:02:57 57° 100° (E) 00:07:10 145.865
O/OREOS (USA 219) 28 Apr 00:02:14 00:04:41 14° 311° (NW) 00:06:59 437.305
POPSAT HIP 1 28 Apr 00:03:00 00:07:17 64° 100° (E) 00:11:34 437.405
HUMSAT D 28 Apr 00:04:31 00:06:32 13° 272° (W) 00:08:20 437.325/437.525
UKube-1 28 Apr 00:05:17 00:06:14 10° 272° (W) 00:06:55 .
ESTCUBE 1 28 Apr 00:08:42 00:12:51 34° 264° (W) 00:16:58 437.505/2401.250
SPROUT 28 Apr 00:11:38 00:15:50 62° 75° (ENE) 00:20:07 437.525
BUGSAT 1 28 Apr 00:14:39 00:18:47 60° 101° (E) 00:22:56 437.445
TIGRISAT 28 Apr 00:26:44 00:31:08 38° 290° (WNW) 00:35:24 435.000
DUCHIFAT 1 28 Apr 00:31:54 00:36:09 62° 286° (WNW) 00:40:23 145.980
UNISAT 6 28 Apr 00:32:17 00:36:32 33° 291° (WNW) 00:40:40 437.425
POLYITAN 1 28 Apr 00:33:59 00:38:14 57° 286° (WNW) 00:42:28 437.675
CUBEBUG 1 28 Apr 00:38:11 00:41:21 19° 268° (W) 00:44:24 437.445
Cosmos 2504 28 Apr 00:47:22 00:55:26 78° 80° (E) 01:02:53 435.465 / 435.565
ITUPSAT 1 28 Apr 00:47:26 00:51:02 22° 65° (ENE) 00:54:45 437.325
QB50P1 28 Apr 00:51:16 00:55:15 38° 289° (WNW) 00:59:13 145.935-145.965
AIST 1 28 Apr 00:59:07 01:03:25 80° 278° (W) 01:07:43
TISAT 1 28 Apr 01:07:47 01:11:42 38° 262° (W) 01:15:39 437.305
BEESAT 28 Apr 01:15:38 01:20:06 41° 70° (ENE) 01:24:35 436.000
ANTELSAT 28 Apr 01:15:52 01:18:23 14° 298° (WNW) 01:20:41 437.575/2403.000
SWISSCUBE 28 Apr 01:18:28 01:23:01 47° 71° (ENE) 01:27:38 437.505
QB50P2 28 Apr 01:18:55 01:22:08 20° 294° (WNW) 01:25:16 145.880/145.840
NANOSAT C BR1 28 Apr 01:35:56 01:38:23 15° 296° (WNW) 01:40:40 145.865
Cosmos 2491 28 Apr 01:39:21 01:44:05 15° 307° (NW) 01:48:18 435.465 / 435.565
POPSAT HIP 1 28 Apr 01:40:33 01:42:43 13° 297° (WNW) 01:44:41 437.405
BEESAT 3 28 Apr 01:43:22 01:46:26 21° 113° (ESE) 01:49:36 437.485
RS-15 28 Apr 01:43:59 01:53:00 26° 256° (WSW) 02:01:42 29.354- 29.394
BEESAT 2 28 Apr 01:48:10 01:51:08 20° 113° (ESE) 01:54:12 435.950
SPROUT 28 Apr 01:50:39 01:52:26 12° 272° (W) 01:54:00 437.525
BUGSAT 1 28 Apr 01:51:43 01:53:50 13° 296° (WNW) 01:55:48 437.445
Oscar 19 28 Apr 02:02:55 02:07:46 39° 97° (E) 02:12:38 437.125/150
KKS-1 28 Apr 02:07:38 02:11:15 26° 67° (ENE) 02:14:57 437.445
GONETS M04 28 Apr 02:12:47 02:19:09 22° 60° (ENE) 02:25:50
ITUPSAT 1 28 Apr 02:24:06 02:28:41 43° 261° (W) 02:33:16 437.325
CUSAT 1 28 Apr 02:38:41 02:44:22 23° 63° (ENE) 02:50:44 437.405
Cosmos 2504 28 Apr 02:42:25 02:47:53 20° 280° (W) 02:52:48 435.465 / 435.565
ITAMSAT 1 28 Apr 02:43:29 02:47:54 28° 94° (E) 02:52:23 435.822/435.867
BEESAT 28 Apr 02:54:20 02:58:07 22° 267° (W) 03:01:49 436.000
STARS 28 Apr 02:55:17 02:59:30 50° 72° (ENE) 03:03:48 437.465
SWISSCUBE 28 Apr 02:57:40 03:01:10 19° 268° (W) 03:04:33 437.505
AIST 2 28 Apr 03:03:23 03:07:20 39° 117° (ESE) 03:11:21 435.215
BEESAT 3 28 Apr 03:20:22 03:24:13 39° 310° (NW) 03:28:08 437.485
BEESAT 2 28 Apr 03:25:02 03:28:59 42° 310° (NW) 03:32:58 435.950
Gurwin Techsat 1B 28 Apr 03:27:50 03:33:07 65° 101° (E) 03:38:24 435.225
DANDE 28 Apr 03:34:05 03:41:09 41° 71° (ENE) 03:49:10 436.750
Oscar 19 28 Apr 03:42:34 03:47:00 28° 294° (WNW) 03:51:19 437.125/150
KKS-1 28 Apr 03:43:47 03:47:47 32° 264° (W) 03:51:46 437.445
AO-7 28 Apr 03:59:20 04:05:47 25° 92° (E) 04:12:31 29.400- 29.500
GONETS M04 28 Apr 04:08:26 04:17:22 85° 262° (W) 04:26:11
HORYU 2 28 Apr 04:19:03 04:23:18 41° 98° (E) 04:27:33 437.375
CUSAT 1 28 Apr 04:20:12 04:28:00 88° 264° (W) 04:36:24 437.405
ITAMSAT 1 28 Apr 04:22:44 04:27:30 37° 292° (WNW) 04:32:12 435.822/435.867
MOZHAYETS 4 28 Apr 04:28:52 04:33:22 52° 73° (ENE) 04:37:54
JAS-2 28 Apr 04:33:09 04:38:57 40° 95° (E) 04:44:10 435.910
STARS 28 Apr 04:33:33 04:36:19 16° 270° (W) 04:38:56 437.465
AIST 2 28 Apr 04:42:25 04:46:03 26° 316° (NW) 04:49:40 435.215
Cosmos 2499 28 Apr 05:00:59 05:08:08 39° 70° (ENE) 05:14:52 435.465 / 435.565
AUBIESAT-1 28 Apr 05:04:48 05:07:59 19° 59° (ENE) 05:11:17 437.475
Gurwin Techsat 1B 28 Apr 05:08:59 05:12:39 19° 298° (WNW) 05:16:07 435.225
DANDE 28 Apr 05:17:13 05:24:34 49° 267° (W) 05:32:38 436.750
PRISM 28 Apr 05:38:31 05:40:32 14° 64° (ENE) 05:42:42 437.425
STRAND 1 28 Apr 05:48:29 05:51:43 18° 62° (ENE) 05:55:07 437.568
AO-7 28 Apr 05:51:06 05:59:25 73° 291° (WNW) 06:07:42 29.400- 29.500
CUTE-I 28 Apr 05:55:27 05:56:31 11° 85° (E) 05:57:58 437.470
HORYU 2 28 Apr 05:56:18 05:59:43 21° 294° (WNW) 06:03:00 437.375
M-CUBED/EXP-1 PRIME 28 Apr 05:57:45 06:02:31 62° 69° (ENE) 06:07:17 437.505
CUSAT 1 28 Apr 06:04:36 06:10:05 20° 276° (W) 06:15:23 437.405
Cubesat XI-IV 28 Apr 06:04:38 06:07:13 14° 88° (E) 06:10:05 437.490
GONETS M04 28 Apr 06:07:32 06:13:01 17° 282° (WNW) 06:17:59
MOZHAYETS 4 28 Apr 06:07:53 06:10:57 17° 270° (W) 06:13:51
CUBESAT XI-V 28 Apr 06:12:59 06:17:27 51° 73° (ENE) 06:21:56 437.345
JAS-2 28 Apr 06:18:25 06:23:57 32° 296° (WNW) 06:28:51 435.910
AUBIESAT-1 28 Apr 06:37:35 06:42:21 62° 254° (WSW) 06:47:05 437.475
O/OREOS (USA 219) 28 Apr 06:50:46 06:54:02 20° 53° (NE) 06:57:23 437.305
Cosmos 2499 28 Apr 06:54:13 07:01:20 41° 272° (W) 07:07:55 435.465 / 435.565
PRISM 28 Apr 07:11:28 07:15:35 58° 259° (W) 07:19:42 437.425
PCSat 28 Apr 07:13:38 07:17:50 24° 109° (ESE) 07:22:10 145.827
STRAND 1 28 Apr 07:25:25 07:30:29 64° 259° (W) 07:35:34 437.568
CUTE-I 28 Apr 07:32:09 07:37:31 87° 104° (ESE) 07:42:52 437.470
M-CUBED/EXP-1 PRIME 28 Apr 07:34:36 07:37:45 17° 265° (W) 07:40:42 437.505
Cubesat XI-IV 28 Apr 07:42:41 07:48:01 76° 286° (WNW) 07:53:20 437.490
AO-7 28 Apr 07:45:36 07:51:00 19° 311° (NW) 07:56:03 29.400- 29.500
Cosmos 2491 28 Apr 07:51:19 07:55:08 14° 52° (NE) 07:59:33 435.465 / 435.565
CUBESAT XI-V 28 Apr 07:52:11 07:55:15 17° 270° (W) 07:58:09 437.345
BRITE-PL 28 Apr 08:13:15 08:17:04 21° 91° (E) 08:21:13 437.365/2234.400
HO-68 28 Apr 08:28:39 08:33:18 19° 88° (E) 08:38:17 435.675
O/OREOS (USA 219) 28 Apr 08:29:26 08:33:46 46° 252° (WSW) 08:38:01 437.305
SEEDS 28 Apr 08:51:50 08:54:07 15° 89° (E) 08:56:34 437.485
PCSat 28 Apr 08:55:40 09:00:57 51° 306° (NW) 09:06:16 145.827
YUBILEINY 28 Apr 09:00:59 09:03:49 12° 75° (ENE) 09:07:22 435.215
AAUSAT CUBESAT 2 28 Apr 09:02:21 09:04:13 13° 88° (E) 09:06:17 437.432
CANX-2 28 Apr 09:04:07 09:07:44 26° 94° (E) 09:11:22 2200.000
CUTE 1.7 + AOD 2 28 Apr 09:12:42 09:16:28 30° 95° (E) 09:20:13 437.475
CUTE-I 28 Apr 09:14:09 09:16:57 14° 301° (WNW) 09:19:31 437.470
GOMX 1 28 Apr 09:23:29 09:28:39 61° 100° (E) 09:34:02 467.674
Cubesat XI-IV 28 Apr 09:25:34 09:27:20 11° 303° (WNW) 09:28:49 437.490
Cosmos 2491 28 Apr 09:45:30 09:54:18 65° 77° (ENE) 10:03:04 435.465 / 435.565
DOVE 4 28 Apr 09:46:11 09:51:21 68° 100° (E) 09:56:39 437.250
CUBEBUG 2 28 Apr 09:50:07 09:53:38 21° 91° (E) 09:57:15 437.445
TIGRISAT 28 Apr 09:50:18 09:53:52 23° 66° (ENE) 09:57:36 435.000
BRITE-PL 28 Apr 09:50:49 09:55:51 54° 287° (WNW) 10:01:12 437.365/2234.400
DUCHIFAT 1 28 Apr 09:52:42 09:53:50 11° 62° (ENE) 09:55:11 145.980
DELFI C3 28 Apr 09:53:46 09:56:17 16° 91° (E) 09:58:54 145.870
POLYITAN 1 28 Apr 09:54:44 09:56:26 12° 63° (ENE) 09:58:19 437.675
UNISAT 6 28 Apr 09:55:40 09:59:28 27° 68° (ENE) 10:03:25 437.425
COMPASS 1 28 Apr 09:55:57 10:00:08 61° 100° (E) 10:04:16 437.405
BEESAT 3 28 Apr 10:00:48 10:03:55 21° 42° (NE) 10:07:05 437.485
BEESAT 2 28 Apr 10:05:59 10:09:04 20° 42° (NE) 10:12:11 435.950
CINEMA 3 28 Apr 10:09:22 10:14:20 60° 99° (E) 10:19:19 145.822/145.860
UWE-3 28 Apr 10:09:50 10:13:45 26° 93° (E) 10:17:42 435.000/436.395/437.385
QB50P1 28 Apr 10:10:20 10:13:07 18° 65° (ENE) 10:16:01 145.935-145.965
FUNcube-1 28 Apr 10:11:53 10:15:22 21° 92° (E) 10:18:54 145.935
UKube-1 28 Apr 10:14:20 10:15:28 11° 88° (E) 10:16:53 .
HO-68 28 Apr 10:14:44 10:21:58 82° 288° (WNW) 10:29:08 435.675
SEEDS 28 Apr 10:26:10 10:30:17 50° 287° (WNW) 10:34:21 437.485
Oscar 11 28 Apr 10:30:24 10:34:42 58° 100° (E) 10:38:59 145.826/435.025
AAUSAT CUBESAT 2 28 Apr 10:36:10 10:40:17 54° 286° (WNW) 10:44:20 437.432
QB50P2 28 Apr 10:36:22 10:40:08 33° 70° (ENE) 10:43:58 145.880/145.840
ANTELSAT 28 Apr 10:36:58 10:41:30 70° 75° (ENE) 10:46:11 437.575/2403.000
ZACube-1 28 Apr 10:37:54 10:42:14 40° 97° (E) 10:46:33 437.345
CANX-2 28 Apr 10:39:57 10:43:39 28° 291° (WNW) 10:47:14 2200.000
PCSat 28 Apr 10:43:42 10:45:46 12° 328° (NNW) 10:47:39 145.827
CUTE 1.7 + AOD 2 28 Apr 10:48:45 10:52:17 25° 292° (WNW) 10:55:44 437.475
YUBILEINY 28 Apr 10:50:27 10:59:09 68° 93° (E) 11:07:54 435.215
NANOSAT C BR1 28 Apr 10:52:05 10:56:07 47° 72° (ENE) 11:00:12 145.865
VELOX 1 28 Apr 10:52:57 10:55:30 15° 90° (E) 10:58:15 145.980
POPSAT HIP 1 28 Apr 10:56:35 11:00:40 53° 73° (ENE) 11:04:50 437.405
GOMX 1 28 Apr 11:02:39 11:06:24 20° 295° (WNW) 11:10:06 467.674
BUGSAT 1 28 Apr 11:05:42 11:09:31 45° 72° (ENE) 11:13:24 437.445
AIST 1 28 Apr 11:05:43 11:09:19 26° 73° (ENE) 11:12:59
DX 1 28 Apr 11:09:02 11:13:16 47° 99° (E) 11:17:30 434.975-435.025
SO-50 28 Apr 11:11:03 11:15:36 55° 119° (ESE) 11:20:20 436.795
AISAT 28 Apr 11:11:11 11:14:51 25° 94° (E) 11:18:35 437.250
ISS 28 Apr 11:16:46 11:19:54 48° 141° (SE) 11:23:03 145.825
AIST 2 28 Apr 11:24:14 11:28:10 35° 48° (NE) 11:32:03 435.215
DUCHIFAT 1 28 Apr 11:24:55 11:29:07 75° 258° (WSW) 11:33:21 145.980
DOVE 4 28 Apr 11:25:13 11:28:39 18° 296° (WNW) 11:31:57 437.250
CUBEBUG 2 28 Apr 11:26:00 11:30:34 45° 288° (WNW) 11:35:04 437.445
TIGRISAT 28 Apr 11:26:10 11:30:25 38° 263° (W) 11:34:45 435.000
POLYITAN 1 28 Apr 11:27:38 11:31:50 67° 258° (WSW) 11:36:06 437.675
DELFI C3 28 Apr 11:27:51 11:31:39 40° 288° (WNW) 11:35:25 145.870
UNISAT 6 28 Apr 11:32:02 11:36:10 32° 265° (W) 11:40:20 437.425
COMPASS 1 28 Apr 11:33:16 11:35:22 13° 296° (WNW) 11:37:17 437.405
BEESAT 3 28 Apr 11:38:14 11:42:12 47° 241° (WSW) 11:46:04 437.485
Cosmos 2504 28 Apr 11:38:20 11:41:20 13° 76° (ENE) 11:44:59 435.465 / 435.565
Cosmos 2491 28 Apr 11:43:20 11:50:37 29° 277° (W) 11:57:37 435.465 / 435.565
BEESAT 2 28 Apr 11:43:28 11:47:29 50° 241° (WSW) 11:51:24 435.950
QB50P1 28 Apr 11:44:39 11:48:41 43° 262° (W) 11:52:45 145.935-145.965
HUMSAT D 28 Apr 11:44:57 11:49:19 81° 284° (WNW) 11:53:37 437.325/437.525
UWE-3 28 Apr 11:46:04 11:50:20 34° 290° (WNW) 11:54:31 435.000/436.395/437.385
FUNcube-1 28 Apr 11:47:32 11:51:52 40° 289° (WNW) 11:56:06 145.935
CINEMA 3 28 Apr 11:47:39 11:51:06 18° 296° (WNW) 11:54:26 145.822/145.860
UKube-1 28 Apr 11:47:51 11:52:10 69° 287° (WNW) 11:56:28 .
ESTCUBE 1 28 Apr 12:00:06 12:04:24 44° 99° (E) 12:08:42 437.505/2401.250
SPROUT 28 Apr 12:00:25 12:00:55 10° 87° (E) 12:01:43 437.525
50 SAT 28 Apr 12:00:58 12:05:02 85° 284° (WNW) 12:09:02 437.505
HO-68 28 Apr 12:04:09 12:08:45 18° 306° (NW) 12:13:04 435.675
Oscar 11 28 Apr 12:07:59 12:10:28 15° 296° (WNW) 12:12:47 145.826/435.025
QB50P2 28 Apr 12:12:46 12:16:08 22° 267° (W) 12:19:25 145.880/145.840
ZACube-1 28 Apr 12:14:46 12:18:23 22° 293° (WNW) 12:21:52 437.345
ANTELSAT 28 Apr 12:16:52 12:18:54 12° 273° (W) 12:20:42 437.575/2403.000
CUBEBUG 1 28 Apr 12:24:32 12:28:54 72° 102° (ESE) 12:33:17 437.445
VELOX 1 28 Apr 12:28:06 12:32:27 52° 287° (WNW) 12:36:46 145.980
NANOSAT C BR1 28 Apr 12:29:41 12:32:17 15° 270° (W) 12:34:44 145.865
POPSAT HIP 1 28 Apr 12:34:42 12:36:58 14° 271° (W) 12:39:03 437.405
BUGSAT 1 28 Apr 12:42:59 12:45:19 14° 270° (W) 12:47:30 437.445
AIST 1 28 Apr 12:43:21 12:46:55 26° 270° (W) 12:50:26
DX 1 28 Apr 12:46:13 12:49:11 18° 296° (WNW) 12:52:02 434.975-435.025
AISAT 28 Apr 12:47:29 12:51:30 32° 291° (WNW) 12:55:28 437.250
YUBILEINY 28 Apr 12:49:21 12:56:48 28° 295° (WNW) 13:04:03 435.215
TISAT 1 28 Apr 12:51:23 12:55:07 29° 96° (E) 12:58:53 437.305
SO-50 28 Apr 12:52:38 12:56:30 24° 320° (NW) 13:00:24 436.795
ISS 28 Apr 12:53:26 12:56:22 30° 339° (NNW) 12:59:18 145.825
AIST 2 28 Apr 13:03:07 13:06:37 25° 246° (WSW) 13:10:01 435.215
Gurwin Techsat 1B 28 Apr 13:12:42 13:15:45 16° 61° (ENE) 13:19:00 435.225
Oscar 19 28 Apr 13:20:31 13:25:35 61° 72° (ENE) 13:30:43 437.125/150
SWISSCUBE 28 Apr 13:20:31 13:21:36 11° 87° (E) 13:22:57 437.505
Cosmos 2504 28 Apr 13:24:37 13:33:21 66° 93° (E) 13:41:58 435.465 / 435.565
SPROUT 28 Apr 13:33:17 13:37:38 74° 284° (WNW) 13:41:56 437.525
ESTCUBE 1 28 Apr 13:37:45 13:41:00 19° 295° (WNW) 13:44:08 437.505/2401.250
RS-15 28 Apr 13:54:44 14:05:03 54° 113° (ESE) 14:15:42 29.354- 29.394
ITAMSAT 1 28 Apr 14:02:12 14:07:08 48° 70° (ENE) 14:12:07 435.822/435.867
CUBEBUG 1 28 Apr 14:02:53 14:04:45 12° 298° (WNW) 14:06:27 437.445
ITUPSAT 1 28 Apr 14:23:37 14:28:11 44° 98° (E) 14:32:44 437.325
TISAT 1 28 Apr 14:27:16 14:30:49 25° 292° (WNW) 14:34:18 437.305
ISS 28 Apr 14:31:09 14:33:27 17° 359° (N) 14:35:45 145.825
JAS-2 28 Apr 14:45:07 14:51:12 27° 62° (ENE) 14:57:14 435.910
Gurwin Techsat 1B 28 Apr 14:49:52 14:55:10 76° 256° (WSW) 15:00:31 435.225
BEESAT 28 Apr 14:52:18 14:57:06 87° 103° (ESE) 15:01:52 436.000
SWISSCUBE 28 Apr 14:55:23 15:00:10 81° 285° (WNW) 15:04:55 437.505
AO-7 28 Apr 14:59:12 15:06:37 40° 60° (ENE) 15:14:10 29.400- 29.500
Oscar 19 28 Apr 15:02:02 15:05:27 17° 271° (W) 15:08:39 437.125/150
